Location: Marineo
(37.9500°N, 13.4170°E)
Time: 12:30:57
(UTC+01:00)

ISS - Pass Details

Date: 27 January 2019
Orbit: 403 x 411 km, 51.6° (Epoch: 22 February)

Event Time Altitude Azimuth Distance (km) Brightness Sun altitude
Rises 18:19:49 0° 273° (W) 2,325 1.6 -11.3°
Reaches altitude 10° 18:22:28 10° 296° (WNW) 1,469 -0.2 -11.8°
Maximum altitude 18:24:38 16° 337° (NNW) 1,157 -1.4 -12.3°
Drops below altitude 10° 18:26:48 10° 18° (NNE) 1,476 -1.3 -12.7°
Enters shadow 18:27:05 - 21° (NNE) 1,552 -1.2 -12.7°
